Location: Cubitt Town
(51.4833°N, 0.0000°E)
Time: 01:02:02
(UTC+00:00)

Cosmos 2016 Rocket - Pass Details

Date: 15 May 2026
Orbit: 945 x 1000 km, 83.0° (Epoch: 9 June)

Event Time Altitude Azimuth Distance (km) Brightness Sun altitude
Rises 20:40:45 0° 197° (SSW) 3,672 6.7 -7.6°
Reaches altitude 10° 20:43:17 10° 200° (SSW) 2,720 6.1 -7.9°
Maximum altitude 20:49:29 67° 282° (WNW) 1,044 4.4 -8.5°
Drops below altitude 10° 20:55:39 10° 6° (N) 2,701 6.9 -9.2°
Sets 20:58:10 0° 9° (N) 3,644 7.6 -9.5°
